Find OneWeb SL0427

NORAD ID: 50499 Int'l Des: 2021-132 Owner: ONEWEBN Country: UK Constellation: oneweb operational
LEOCIRCULARPOLARONEWEB_TYPE

リアルタイム位置

3D地球を読み込み中...

OneWeb SL0427について

説明を読み込み中...

次回通過

Passes for default location (London). Set your location on the main map for personalized predictions.

高度履歴

Loading altitude history...

軌道要素

1 50499U 21132AG 26107.11952725 .00000098 00000-0 21586-3 0 9996
2 50499 87.9221 347.5758 0001524 85.2543 274.8763 13.18684186213566
Epoch: Apr 17, 2026 • Age: 13 hours

現在のステータス

高度 1198.2 km
速度 7.26 km/s
衛星直下点 55.62°N, 74.97°E
打ち上げ日 Dec 27, 2021
運用期間 4.3 years
タイプ internet

技術仕様

分類 Payload
質量 148.00 kg
乾燥質量 140.00 kg
総質量 148.00 kg
長さ 1.30 m
直径 1.00 m
スパン 5.00 m
形状 Trapezoid+2 pan
製造者 ONEWUS
バスタイプ ARROW
フェーズステータス In Orbit
所有者/国 ONEWEBN/UK

Most Searched